Wind_Speed
5 5 5 4 4 4 3 2 3 4 5 3 3 3 2 0 1 1 1 3 8 11 9 11 10 6 5 10 8 9 8 10 11 18 21 18 23 22 18 16 17 17 15 18 15
4 5 4 4 4 4 3 2 2 4 4 3 4 4 2 0 1 0 1 3 8 12 11 9 9 10 7 4 1 7 9 10 9 15 15 17 21 21 14 17 14 17 15 18 18
5 5 5 4 4 4 4 3 4 4 2 1 2 3 4 2 2 2 2 2 5 11 12 10 8 5 4 5 5 5 13 8 10 7 13 14 18 19 15 14 15 15 16 16 18
5 5 5 5 6 7 8 8 7 6 7 5 4 2 3 4 3 3 4 3 1 7 14 14 9 2 3 4 3 4 15 8 7 7 7 10 17 17 16 13 14 13 14 16 15
6 5 5 5 5 5 5 7 8 10 10 10 9 7 5 3 3 6 4 3 2 1 7 12 12 7 7 6 5 7 13 9 6 8 5 10 13 17 15 14 14 11 12 15 15
12 9 6 4 4 5 5 6 8 9 11 13 13 11 9 7 6 4 3 3 2 1 3 4 10 9 8 8 4 8 8 9 4 10 6 5 12 9 12 14 13 9 11 11 16
13 12 10 10 10 8 5 4 5 9 11 12 13 14 13 11 10 8 5 3 2 1 2 1 7 9 8 3 5 2 4 7 1 2 8 8 4 8 11 11 12 8 7 11 12
13 11 9 7 8 7 8 7 5 4 6 10 12 14 15 14 14 13 9 6 2 1 2 3 6 10 10 9 10 9 10 11 4 6 11 14 5 5 7 10 11 6 2 11 12
12 11 10 7 6 3 3 3 3 4 2 1 8 12 14 15 14 16 14 11 7 5 6 6 7 10 13 14 13 9 16 11 13 8 9 4 8 2 2 5 7 7 5 3 12
10 10 9 8 7 6 3 2 1 2 4 4 3 8 11 13 16 16 16 15 12 9 8 9 8 10 13 17 16 19 21 17 13 11 9 8 8 8 4 4 2 4 4 3 5
6 6 6 8 8 6 4 4 2 3 1 3 3 5 9 12 18 18 18 17 16 15 12 9 9 10 13 17 21 23 23 19 15 13 15 15 11 11 6 8 7 5 6 5 5
6 6 4 4 5 6 5 3 3 2 1 3 2 4 6 7 11 17 18 18 18 17 16 15 10 15 17 18 17 20 23 24 21 18 13 13 11 14 11 10 10 10 9 9 9
9 7 6 4 3 4 6 6 5 4 4 5 5 4 3 4 7 13 17 19 20 20 20 19 19 20 19 18 19 20 20 22 25 28 22 23 13 15 12 16 21 15 14 13 12
8 6 7 7 6 6 8 9 8 7 6 6 7 5 6 4 6 8 14 18 20 22 24 22 25 23 21 20 20 20 21 23 22 23 25 25 17 18 16 11 16 18 14 15 16
9 8 7 9 9 10 10 12 12 10 11 10 8 8 10 8 6 7 9 15 19 23 24 23 28 28 22 22 23 21 24 22 22 21 23 21 21 18 18 9 14 16 13 11 13
15 13 15 16 17 17 17 15 17 15 18 14 13 11 10 11 8 7 9 12 16 20 23 26 28 27 22 27 27 25 25 27 25 25 22 16 18 17 17 18 19 16 13 11 8
20 20 20 21 22 23 23 22 20 20 18 17 16 16 15 15 13 12 11 12 16 17 21 24 26 27 26 28 29 28 28 30 30 29 22 15 16 15 20 20 21 20 22 17 10
24 23 23 23 22 24 24 24 23 22 22 21 21 21 21 19 18 17 15 15 14 16 21 24 29 29 28 28 30 32 32 34 34 34 28 21 20 13 20 21 22 27 25 19 19
30 30 28 27 27 26 26 27 28 26 25 24 25 24 26 23 21 19 18 20 18 17 17 20 27 29 31 31 32 33 36 33 37 37 35 31 23 19 25 22 19 22 31 23 15
35 35 34 32 31 30 30 30 32 32 30 28 28 28 28 27 24 21 20 20 22 20 19 19 24 30 31 32 34 34 35 38 40 39 36 36 29 27 24 25 20 18 14 22 19
37 37 36 34 33 33 32 33 37 37 34 33 32 32 30 29 28 27 23 23 22 22 22 22 22 29 31 32 34 35 37 39 38 40 40 38 34 31 31 27 26 24 23 19 19
39 39 37 35 34 33 33 33 37 40 39 38 37 35 34 33 31 31 29 25 24 25 24 24 25 28 29 34 34 37 39 40 40 39 39 40 38 36 33 31 32 25 24 25 23
48 48 46 43 40 40 41 37 37 39 41 40 39 39 37 36 35 34 32 30 28 25 25 25 27 30 31 35 35 38 40 41 42 42 42 41 38 39 33 36 36 30 30 30 28
54 53 54 53 51 49 48 44 42 41 42 44 41 41 40 39 39 39 36 34 32 30 28 31 33 31 35 30 34 37 41 42 44 44 40 43 40 40 35 34 37 36 35 36 36
62 60 60 59 56 52 51 49 46 47 46 47 48 46 44 42 42 41 40 36 37 35 35 35 35 34 34 35 35 35 40 41 42 43 42 38 40 40 39 36 38 36 34 39 40
64 63 63 64 63 61 58 54 51 50 48 48 49 50 49 46 43 41 41 41 39 38 38 40 39 35 36 35 38 39 42 44 45 45 42 39 39 36 40 38 39 37 38 41 36
56 60 61 62 62 61 59 57 55 51 50 50 50 50 51 49 47 44 44 43 43 41 37 41 40 40 39 35 34 47 45 47 49 46 38 34 34 34 36 39 39 41 42 43 43
Wind_Direction
146 149 164 161 160 163 161 142 126 114 109 99 97 145 165 108 28 312 273 165 134 131 134 107 111 93 110 129 154 130 129 105 102 95 97 92 89 77 75 73 74 80 81 74 88
168 167 171 164 171 152 156 148 133 121 103 74 59 59 65 307 295 46 234 179 152 155 155 127 121 108 115 176 132 172 165 102 104 97 94 97 93 86 78 85 72 82 79 75 83
182 184 187 187 200 202 190 179 176 195 172 122 17 31 31 23 313 265 271 211 164 169 172 173 158 138 118 128 278 182 148 121 108 109 107 97 95 89 87 84 84 85 89 83 85
184 184 196 206 215 222 224 225 225 216 221 228 248 290 333 12 331 302 321 295 154 180 190 186 189 237 291 338 71 198 198 121 103 152 110 107 102 99 96 89 87 86 93 91 94
156 167 179 195 207 214 226 231 233 234 234 236 241 254 263 279 319 329 321 317 357 264 221 199 204 217 248 275 202 241 230 191 97 118 108 117 98 101 100 98 97 93 101 107 102
63 69 71 81 118 137 173 202 219 227 229 234 239 245 251 250 269 287 308 330 344 350 346 199 200 194 246 285 213 204 246 206 238 127 133 107 96 101 104 104 96 88 102 104 105
48 46 49 35 31 37 74 114 175 209 221 226 235 241 244 243 247 247 266 308 356 332 2 85 214 213 228 225 244 346 240 245 176 172 164 164 111 115 117 107 97 90 99 103 105
54 52 37 27 35 16 21 16 60 119 196 223 234 240 239 241 238 236 234 242 242 197 201 198 221 223 227 217 247 251 241 226 236 286 167 173 164 103 124 124 115 111 99 123 112
55 47 44 67 61 20 11 15 1 1 6 232 225 227 237 239 244 246 241 236 236 202 163 221 239 233 228 238 256 253 263 269 243 231 236 249 165 112 150 129 121 132 134 107 115
35 33 34 32 40 46 57 69 138 65 26 358 295 233 237 233 239 247 251 246 233 226 195 199 223 241 239 230 233 236 241 250 211 231 235 212 266 204 229 210 178 156 148 148 132
12 19 14 14 17 18 47 52 65 56 155 5 320 285 257 247 233 236 241 245 240 234 227 218 222 224 224 228 242 238 252 242 241 238 256 249 267 249 224 217 233 218 204 179 194
325 332 324 338 352 355 343 5 34 48 352 1 321 323 296 284 247 240 238 242 242 241 234 227 223 228 229 233 235 248 255 260 266 258 240 239 236 254 236 237 231 226 220 204 213
306 309 297 301 302 314 310 312 320 337 355 356 340 349 1 307 275 244 239 235 236 237 237 234 225 229 230 234 238 240 247 254 255 258 238 255 249 250 245 251 239 245 222 232 209
297 297 279 279 263 284 291 294 294 302 307 323 320 316 339 318 278 260 247 240 237 238 237 232 234 232 234 237 243 248 241 245 252 255 256 252 248 268 244 216 252 227 220 223 220
288 283 274 273 272 274 281 287 286 288 293 311 311 306 319 320 292 269 255 247 238 241 241 237 240 243 238 239 237 244 251 250 255 257 260 261 240 269 242 264 232 227 239 229 222
279 273 274 278 277 274 272 269 273 278 289 300 301 298 304 311 306 285 261 251 247 248 247 243 243 248 245 240 238 236 240 248 250 256 261 271 261 246 241 225 220 210 212 201 202
274 275 273 276 276 276 274 269 267 263 274 283 288 288 291 295 295 293 280 267 256 251 247 243 242 242 236 241 242 241 241 243 250 252 261 248 248 222 231 230 222 201 200 213 196
272 273 271 268 270 271 271 269 267 261 264 273 278 281 285 286 285 285 284 279 267 255 246 243 240 239 235 234 240 240 243 246 254 259 263 251 239 233 236 233 227 220 197 200 215
274 274 271 271 271 268 266 267 267 264 263 267 271 273 276 279 279 278 280 283 283 273 257 243 242 243 238 231 232 237 240 244 249 256 261 263 245 233 246 244 228 230 234 178 199
276 275 273 272 271 269 266 266 269 268 267 271 272 271 273 272 273 275 275 275 278 274 267 255 237 238 238 235 234 235 240 239 245 250 258 260 246 219 222 230 210 219 212 215 196
274 273 271 272 271 270 268 264 266 269 272 273 270 268 267 266 264 270 273 270 272 274 270 262 244 242 240 236 234 236 238 241 243 247 250 252 247 231 218 223 242 232 240 218 240
267 266 264 265 268 271 270 266 265 268 270 271 269 267 268 266 264 266 271 267 264 265 265 255 245 239 241 239 235 235 236 237 241 245 250 253 252 246 227 220 221 222 234 237 236
268 266 264 263 264 267 269 270 266 266 268 266 265 264 264 264 267 267 266 267 268 262 264 257 250 230 233 235 238 241 240 240 245 242 242 247 252 256 248 221 213 228 236 236 230
271 269 267 265 264 265 266 265 263 261 262 265 262 260 261 263 265 266 267 267 267 266 255 254 252 240 233 236 243 241 244 243 243 245 244 247 251 257 258 248 237 233 228 234 235
268 266 265 266 266 264 262 261 259 259 258 259 262 259 258 259 260 261 263 261 262 263 263 256 250 246 241 238 234 240 240 238 241 244 243 247 249 252 256 251 241 235 230 232 236
270 266 263 263 264 264 263 261 257 256 254 253 255 258 258 255 253 254 255 258 257 259 262 259 256 248 245 239 236 232 233 233 237 241 246 248 250 246 250 250 245 238 235 236 238
271 268 266 265 264 263 261 258 254 253 251 250 250 250 253 253 250 247 246 248 251 253 254 253 253 252 248 247 241 232 229 232 238 243 243 245 247 251 253 251 248 247 245 244 246
Height
5875 5876 5877 5878 5878 5879 5880 5881 5882 5882 5883 5883 5883 5884 5884 5884 5885 5886 5888 5890 5892 5895 5895 5897 5897 5898 5900 5898 5900 5904 5906 5904 5902 5900 5899 5901 5897 5898 5899 5898 5897 5897 5898 5897 5897
5876 5877 5878 5879 5880 5880 5880 5881 5882 5883 5884 5884 5884 5884 5885 5885 5886 5886 5888 5890 5893 5895 5896 5898 5899 5900 5901 5902 5902 5904 5906 5906 5905 5903 5903 5903 5900 5899 5902 5900 5900 5900 5900 5900 5899
5876 5876 5877 5878 5879 5880 5881 5882 5883 5883 5884 5885 5884 5885 5885 5886 5886 5887 5888 5889 5892 5895 5897 5898 5900 5901 5902 5902 5902 5903 5905 5906 5906 5906 5905 5904 5904 5902 5904 5904 5902 5904 5903 5902 5902
5876 5876 5877 5878 5879 5880 5880 5881 5882 5883 5884 5885 5885 5885 5886 5886 5888 5888 5889 5890 5893 5894 5896 5898 5900 5901 5901 5901 5902 5900 5902 5906 5908 5909 5908 5907 5906 5906 5906 5907 5906 5907 5906 5906 5907
5876 5877 5877 5878 5878 5879 5880 5880 5881 5882 5883 5883 5883 5884 5886 5887 5887 5887 5889 5891 5894 5894 5895 5898 5901 5901 5901 5901 5902 5902 5904 5907 5909 5908 5909 5910 5911 5910 5909 5910 5909 5910 5910 5909 5910
5876 5876 5876 5877 5878 5879 5879 5880 5880 5880 5881 5882 5882 5884 5885 5887 5886 5887 5888 5891 5894 5893 5894 5896 5898 5900 5900 5900 5900 5903 5904 5908 5910 5910 5910 5913 5914 5915 5913 5912 5912 5912 5913 5913 5911
5878 5877 5877 5877 5876 5877 5878 5878 5878 5878 5878 5879 5880 5882 5883 5885 5885 5886 5887 5890 5892 5893 5893 5894 5896 5898 5899 5901 5901 5903 5905 5908 5909 5910 5910 5913 5915 5916 5915 5913 5914 5915 5916 5915 5914
5880 5879 5879 5878 5877 5877 5877 5877 5877 5877 5877 5878 5879 5880 5881 5882 5883 5884 5886 5888 5890 5892 5894 5894 5895 5897 5898 5900 5902 5904 5906 5907 5908 5911 5914 5913 5916 5915 5916 5916 5915 5917 5918 5917 5917
5882 5882 5880 5879 5879 5879 5878 5878 5877 5877 5876 5876 5877 5878 5879 5881 5881 5882 5884 5887 5888 5890 5893 5894 5895 5896 5898 5899 5901 5902 5905 5906 5909 5910 5913 5916 5916 5915 5916 5916 5916 5918 5919 5919 5917
5884 5883 5883 5882 5881 5880 5879 5879 5878 5878 5877 5876 5876 5877 5877 5878 5878 5880 5882 5884 5888 5890 5892 5893 5894 5896 5897 5899 5900 5903 5903 5905 5906 5910 5912 5913 5915 5915 5916 5917 5917 5917 5918 5920 5920
5886 5885 5883 5882 5881 5881 5880 5879 5880 5879 5876 5876 5875 5874 5874 5875 5876 5877 5879 5882 5885 5887 5890 5893 5894 5895 5896 5897 5898 5900 5902 5906 5908 5910 5912 5913 5915 5916 5917 5917 5919 5919 5919 5920 5921
5886 5885 5884 5883 5881 5880 5879 5879 5878 5878 5876 5874 5874 5873 5872 5873 5874 5875 5877 5879 5881 5885 5887 5890 5892 5893 5893 5894 5896 5897 5900 5902 5904 5907 5910 5911 5914 5915 5916 5918 5918 5920 5920 5920 5922
5885 5884 5883 5882 5881 5879 5878 5877 5877 5876 5876 5874 5872 5872 5872 5872 5871 5873 5874 5876 5879 5881 5883 5886 5888 5888 5890 5892 5894 5895 5897 5900 5902 5902 5908 5908 5912 5912 5912 5915 5917 5918 5919 5920 5920
5883 5882 5881 5881 5881 5878 5877 5875 5874 5874 5874 5874 5871 5870 5871 5869 5869 5870 5870 5873 5876 5878 5878 5882 5882 5885 5887 5890 5892 5893 5895 5895 5898 5901 5902 5906 5911 5909 5910 5914 5916 5916 5917 5918 5919
5880 5879 5879 5878 5877 5876 5876 5873 5873 5872 5872 5872 5870 5868 5867 5868 5868 5867 5868 5869 5871 5872 5875 5879 5878 5880 5885 5887 5888 5892 5890 5891 5892 5896 5899 5902 5907 5906 5909 5910 5912 5912 5914 5915 5917
5876 5876 5875 5875 5873 5872 5871 5871 5870 5870 5867 5868 5867 5866 5865 5865 5864 5863 5864 5865 5866 5868 5870 5872 5874 5877 5882 5882 5883 5886 5888 5889 5890 5891 5894 5900 5901 5905 5905 5904 5906 5907 5910 5913 5915
5871 5870 5870 5869 5868 5867 5866 5866 5867 5864 5865 5864 5863 5862 5861 5861 5861 5860 5860 5860 5862 5863 5865 5867 5869 5872 5874 5876 5879 5882 5884 5885 5887 5887 5891 5896 5899 5901 5901 5903 5904 5906 5906 5909 5911
5866 5865 5864 5863 5862 5861 5860 5861 5860 5860 5860 5859 5857 5857 5857 5857 5857 5856 5856 5856 5857 5858 5860 5861 5863 5866 5869 5872 5875 5876 5880 5881 5882 5884 5888 5891 5894 5899 5899 5901 5901 5903 5902 5907 5909
5858 5857 5856 5856 5855 5854 5854 5853 5852 5853 5853 5854 5853 5852 5852 5851 5852 5851 5851 5850 5851 5853 5855 5857 5858 5860 5863 5865 5868 5871 5872 5879 5878 5880 5883 5885 5890 5894 5896 5899 5900 5901 5899 5904 5906
5849 5849 5847 5847 5846 5846 5846 5845 5843 5843 5845 5847 5847 5848 5846 5846 5846 5845 5845 5846 5846 5847 5848 5851 5853 5854 5857 5859 5861 5864 5868 5870 5871 5873 5876 5877 5883 5887 5892 5896 5897 5897 5897 5899 5902
5839 5839 5838 5838 5837 5837 5837 5836 5833 5834 5836 5837 5837 5838 5839 5838 5838 5838 5841 5840 5841 5841 5842 5845 5848 5849 5850 5853 5856 5858 5859 5862 5866 5866 5867 5870 5875 5882 5885 5890 5894 5895 5897 5897 5902
5828 5828 5827 5827 5828 5827 5826 5826 5825 5823 5825 5825 5825 5827 5828 5828 5829 5830 5832 5833 5834 5835 5836 5838 5840 5842 5844 5844 5849 5849 5851 5854 5856 5861 5862 5864 5868 5873 5879 5882 5887 5890 5893 5896 5898
5815 5815 5814 5815 5816 5815 5814 5815 5814 5813 5812 5814 5815 5816 5816 5817 5819 5820 5821 5825 5825 5828 5829 5831 5831 5835 5834 5838 5840 5842 5844 5846 5849 5852 5853 5856 5862 5864 5873 5877 5878 5882 5886 5889 5891
5802 5800 5799 5800 5801 5802 5800 5802 5801 5801 5800 5800 5804 5804 5805 5806 5807 5809 5810 5813 5815 5817 5821 5821 5822 5826 5829 5832 5834 5835 5836 5839 5841 5842 5847 5849 5854 5858 5863 5869 5871 5875 5878 5881 5883
5783 5783 5782 5783 5784 5785 5785 5786 5787 5787 5788 5788 5788 5791 5793 5795 5796 5797 5799 5803 5805 5807 5809 5811 5814 5818 5821 5822 5823 5826 5828 5829 5832 5835 5837 5844 5845 5850 5854 5857 5861 5865 5870 5873 5874
5761 5762 5764 5764 5763 5766 5768 5770 5771 5772 5773 5774 5774 5775 5778 5782 5785 5788 5789 5790 5794 5796 5798 5800 5803 5808 5811 5813 5815 5817 5819 5820 5823 5826 5829 5834 5837 5843 5845 5848 5850 5854 5859 5862 5865
5739 5739 5740 5745 5745 5746 5750 5752 5755 5756 5757 5758 5760 5762 5763 5766 5769 5773 5776 5778 5780 5783 5787 5790 5793 5796 5800 5805 5806 5805 5811 5813 5815 5819 5823 5827 5832 5836 5838 5840 5842 5845 5848 5851 5854